Location: Misciano
(43.5000°N, 11.9500°E)
Time: 17:36:22
(UTC+00:00)

Cosmos 1741 Rocket - Pass Details

Date: 13 August 2020
Orbit: 761 x 783 km, 74.0° (Epoch: 25 September)

Event Time Altitude Azimuth Distance (km) Brightness Sun altitude
Exits shadow 20:27:48 18° 197° (SSW) 1,810 5.7 -20.5°
Maximum altitude 20:31:45 87° 109° (ESE) 777 3.9 -21.0°
Drops below altitude 10° 20:37:03 10° 21° (NNE) 2,329 6.8 -21.6°
Sets 20:39:26 0° 21° (NNE) 3,264 7.6 -21.9°
